カタログに戻る

STARLINK-31238

運用中通信VLEO
NORAD 58853·PAYLOAD·🇺🇸 United States

打ち上げ Jan 29, 2024 から Cape Canaveral Space Force Station

Loading…

次のパス (今後24時間)

TLE

最新Source: CelesTrak SupGP

元期: Sep 14, 2026, 21:40 UTC

1 58853C 24019A   26257.90326389  .00039342  00000+0  14252-2 0  2570
2 58853  42.9992 260.1215 0001234 262.1014  63.8588 15.27552837    13

AllMySatでSTARLINK-31238をリアルタイム追跡

Download on the App Store